Content
SEND FEEDBACK

Daily
Averages
Monthly
Summary
United States of America

PLACERVILLE, CALIFORNIA


Home > North America > United States > California
Elevation: 2590 feet     Latitude: 38 43N     Longitude: 120 45W

WEATHER
 
SELECT A DAY
Number of Records: 98,437;   Date Range: 7/10/09 - 9/30/14
 
SHARE

PRINT THIS DATA

[ ← Previous Day ]
WEATHER ALMANAC - JANUARY 1, 2013
[ Next Day → ]
[ °C ]   °F
Weather ElementAverageHighLow
Temperature39 °F44.6 °F (1:55 pm)33.8 °F (1:35 am)
Dewpoint28.2 °F32 °F (2:15 pm)23 °F (10:55 pm)
Humidity65.7 %81 % (1:35 am)49 % (11:15 pm)
Barometer30.20 in30.24 in (10:55 am)30.18 in (4:35 pm)
Wind Speed2.9 mph9.2 mph (7:15 am)
Weather ElementAverage
Visibility10 mi
Wind DirectionENE (69.7 °)

Weather ElementTotal
Precipitation---
Heating Degree Days25.8 (Base 65)
Averaged from 64 records on January 1, 2013
WEATHER CONDITIONS BREAKOUT
WIND DIRECTION BREAKOUT
WEATHER BY HOUR - JANUARY 1, 2013
[ °C ]   °F
Local TimeTemperatureDewpointHumidityBarometerVisibilityWind DirectionWind SpeedGust SpeedPrecipitationEventsConditions
12:35 AM35.6 °F28.4 °F75 %30.20 in10.0 miCalmPartly Cloudy
1:15 AM35.6 °F28.4 °F75 %30.20 in10.0 miCalmClear
1:35 AM33.8 °F28.4 °F81 %30.20 in10.0 miESE (110°)4.6 mphClear
1:55 AM35.6 °F28.4 °F75 %30.19 in10.0 miESE (120°)4.6 mphClear
2:15 AM35.6 °F28.4 °F75 %30.19 in10.0 miESE (120°)3.5 mphMostly Cloudy
2:35 AM35.6 °F28.4 °F75 %30.21 in10.0 miCalmOvercast
3:15 AM37.4 °F28.4 °F70 %30.22 in10.0 miCalmOvercast
3:35 AM37.4 °F28.4 °F70 %30.22 in10.0 miCalmOvercast
4:15 AM35.6 °F28.4 °F75 %30.22 in10.0 miENE (70°)4.6 mphOvercast
4:35 AM35.6 °F28.4 °F75 %30.21 in10.0 miEast (100°)4.6 mphOvercast
4:55 AM35.6 °F28.4 °F75 %30.20 in10.0 miESE (110°)6.9 mphOvercast
5:15 AM33.8 °F28.4 °F81 %30.20 in10.0 miESE (120°)5.8 mphOvercast
5:35 AM35.6 °F28.4 °F75 %30.20 in10.0 miEast (100°)4.6 mphOvercast
6:15 AM35.6 °F28.4 °F75 %30.19 in10.0 miESE (110°)6.9 mphMostly Cloudy
6:35 AM37.4 °F26.6 °F65 %30.19 in10.0 miENE (70°)8.1 mphScattered Clouds
7:15 AM35.6 °F24.8 °F65 %30.19 in10.0 miENE (70°)9.2 mphOvercast
7:35 AM35.6 °F24.8 °F65 %30.20 in10.0 miEast (80°)9.2 mphScattered Clouds
7:55 AM37.4 °F24.8 °F60 %30.20 in10.0 miENE (60°)4.6 mphClear
8:15 AM37.4 °F24.8 °F60 %30.19 in10.0 miEast (90°)6.9 mphClear
8:35 AM37.4 °F24.8 °F60 %30.19 in10.0 miCalmClear
8:55 AM37.4 °F24.8 °F60 %30.20 in10.0 miCalmClear
9:15 AM39.2 °F26.6 °F61 %30.20 in10.0 miCalmClear
9:35 AM39.2 °F26.6 °F61 %30.21 in10.0 miCalmClear
9:55 AM39.2 °F26.6 °F61 %30.21 in10.0 miCalmClear
10:15 AM41.0 °F28.4 °F61 %30.22 in10.0 miCalmClear
10:35 AM41.0 °F28.4 °F61 %30.23 in10.0 miWNW (300°)3.5 mphClear
10:55 AM41.0 °F28.4 °F61 %30.24 in10.0 miCalmClear
11:15 AM41.0 °F30.2 °F65 %30.22 in10.0 miCalmClear
11:35 AM41.0 °F30.2 °F65 %30.22 in10.0 miWNW (290°)6.9 mphClear
12:15 PM41.0 °F28.4 °F61 %30.21 in10.0 miCalmClear
12:35 PM41.0 °F28.4 °F61 %30.21 in10.0 miNW (320°)3.5 mphClear
1:15 PM42.8 °F30.2 °F61 %30.20 in10.0 miWest (280°)5.8 mphClear
1:35 PM42.8 °F28.4 °F57 %30.20 in10.0 miCalmClear
1:55 PM44.6 °F30.2 °F57 %30.19 in10.0 miNW (310°)3.5 mphClear
2:15 PM44.6 °F32.0 °F61 %30.19 in10.0 miCalmClear
2:35 PM44.6 °F32.0 °F61 %30.20 in10.0 miCalmClear
2:55 PM44.6 °F32.0 °F61 %30.20 in10.0 miWNW (290°)4.6 mphClear
3:15 PM44.6 °F32.0 °F61 %30.20 in10.0 miCalmClear
3:35 PM42.8 °F30.2 °F61 %30.19 in10.0 miNW (310°)3.5 mphClear
3:55 PM42.8 °F32.0 °F66 %30.19 in10.0 miCalmClear
4:15 PM42.8 °F32.0 °F66 %30.19 in10.0 miCalmClear
4:35 PM41.0 °F30.2 °F65 %30.18 in10.0 miCalmClear
4:55 PM39.2 °F30.2 °F70 %30.18 in10.0 miCalmClear
5:15 PM39.2 °F30.2 °F70 %30.18 in10.0 miCalmClear
5:35 PM39.2 °F28.4 °F65 %30.18 in10.0 miCalmClear
5:55 PM39.2 °F28.4 °F65 %30.18 in10.0 miCalmClear
6:15 PM39.2 °F28.4 °F65 %30.19 in10.0 miCalmClear
6:35 PM39.2 °F28.4 °F65 %30.19 in10.0 miCalmClear
6:55 PM39.2 °F28.4 °F65 %30.20 in10.0 miCalmClear
7:15 PM35.6 °F30.2 °F81 %30.20 in10.0 miCalmClear
7:35 PM37.4 °F28.4 °F70 %30.19 in10.0 miEast (100°)5.8 mphClear
7:55 PM37.4 °F28.4 °F70 %30.20 in10.0 miEast (100°)6.9 mphClear
8:15 PM37.4 °F28.4 °F70 %30.20 in10.0 miEast (90°)4.6 mphClear
8:35 PM37.4 °F30.2 °F75 %30.20 in10.0 miEast (80°)8.1 mphClear
8:55 PM39.2 °F30.2 °F70 %30.21 in10.0 miEast (80°)5.8 mphClear
9:15 PM39.2 °F30.2 °F70 %30.22 in10.0 miCalmClear
9:35 PM39.2 °F28.4 °F65 %30.23 in10.0 miCalmClear
9:55 PM37.4 °F28.4 °F70 %30.23 in10.0 miCalmClear
10:15 PM39.2 °F26.6 °F61 %30.24 in10.0 miEast (100°)6.9 mphClear
10:35 PM39.2 °F24.8 °F56 %30.23 in10.0 miEast (100°)8.1 mphClear
10:55 PM39.2 °F23.0 °F52 %30.24 in10.0 miEast (100°)6.9 mphClear
11:15 PM41.0 °F23.0 °F49 %30.24 in10.0 miEast (100°)3.5 mphClear
11:35 PM41.0 °F23.0 °F49 %30.24 in10.0 miEast (90°)6.9 mphClear
11:55 PM41.0 °F23.0 °F49 %30.23 in10.0 miEast (90°)5.8 mphClear
Hourly data recorded from KPVF, located miles away from Placerville, California







STORIES FROM OUR PARTNERS